Date,TemperatureHighF,TemperatureAvgF,TemperatureLowF,DewpointHighF,DewpointAvgF,DewpointLowF,HumidityHigh,HumidityAvg,HumidityLow,PressureMaxIn,PressureMinIn,WindSpeedMaxMPH,WindSpeedAvgMPH,GustSpeedMaxMPH,PrecipitationSumIn
2013-1-1,58.4,41.5,30.7,35.8,30.4,23.6,93,70,27,30.17,30.08,10,0,13,0.00
2013-1-2,57.5,39.5,27.9,38.2,31.1,25.1,90,74,47,30.14,30.02,7,0,9,0.02
2013-1-3,57.5,40.2,28.7,39.3,32.3,25.9,90,75,49,30.17,30.06,7,0,8,0.08
2013-1-4,58.1,42.7,32.8,41.0,35.1,30.2,91,76,49,30.18,30.07,6,0,8,0.01
2013-1-5,51.0,42.3,32.9,45.2,38.7,30.3,93,87,72,30.15,29.95,6,0,9,0.00
2013-1-6,55.6,46.5,37.5,44.0,41.1,35.1,93,82,60,30.09,29.95,8,1,8,0.00
2013-1-7,62.1,46.5,35.5,47.9,40.9,33.7,94,82,56,30.15,30.04,6,0,7,0.00
2013-1-8,61.6,47.1,36.9,48.4,42.0,35.1,94,84,60,30.13,30.01,6,0,6,0.00
2013-1-9,51.4,43.4,33.7,47.4,39.9,31.4,94,88,66,30.05,29.87,10,0,17,0.00
2013-1-10,51.3,40.1,30.0,35.7,30.4,27.0,93,71,41,30.09,29.96,17,2,22,0.10
2013-1-11,53.3,41.0,32.1,38.8,32.4,27.5,88,72,49,30.14,30.00,12,1,12,0.00
2013-1-12,51.6,39.1,29.5,31.6,28.0,21.9,89,68,34,30.14,30.02,7,0,8,0.04
2013-1-13,51.6,37.5,24.8,31.8,24.2,8.0,86,63,20,30.16,30.07,15,1,23,0.15
2013-1-14,55.6,41.9,29.0,32.8,21.8,7.9,81,49,22,30.29,30.13,9,0,11,0.49
2013-1-15,55.1,38.9,28.7,34.3,29.7,25.1,87,71,41,30.38,30.27,6,0,9,0.14
2013-1-16,60.1,40.8,28.4,37.9,31.2,25.3,90,72,36,30.34,30.16,5,0,6,0.12
2013-1-17,62.7,41.7,27.3,41.2,33.3,24.8,92,75,39,30.17,30.04,5,0,7,0.17
2013-1-18,64.7,42.7,28.4,42.7,33.9,25.6,91,74,40,30.13,30.02,5,0,5,0.11
2013-1-19,63.9,43.2,28.4,40.9,33.3,25.6,90,71,38,30.14,30.04,6,0,10,0.00
2013-1-20,63.4,43.6,28.2,40.0,32.4,25.1,90,68,36,30.12,30.01,8,0,8,0.01
2013-1-21,64.8,43.6,28.4,42.3,33.6,25.3,89,71,37,30.07,29.97,7,0,9,0.00
2013-1-22,63.4,45.6,31.2,42.4,35.7,28.1,89,71,40,30.01,29.87,7,0,7,0.00
2013-1-23,52.2,48.9,45.5,47.7,44.1,38.9,94,84,70,29.98,29.84,9,0,11,0.03
2013-1-24,59.2,52.0,48.3,51.9,48.9,46.7,95,90,75,30.07,29.96,6,0,6,0.02
2013-1-25,62.9,54.1,47.6,53.4,49.7,45.2,94,86,69,30.08,29.93,7,0,7,0.25
2013-1-26,58.4,49.4,38.0,46.8,40.0,30.7,95,73,38,29.96,29.85,16,2,18,0.03
2013-1-27,57.0,44.0,31.8,35.8,32.7,27.2,92,68,35,30.07,29.95,12,1,14,0.01
2013-1-28,58.0,46.6,35.0,38.1,35.8,31.5,88,68,44,30.18,30.06,13,2,14,0.00
2013-1-29,63.5,49.9,37.3,42.0,37.5,33.2,86,65,37,30.24,30.15,11,1,13,0.00
2013-1-30,68.1,49.7,37.3,46.5,39.8,34.6,90,72,38,30.23,30.14,7,1,8,0.00
2013-1-31,67.3,48.6,34.7,47.0,40.1,32.1,92,75,45,30.19,30.07,8,0,10,0.00
2013-2-1,69.4,49.6,34.3,47.9,40.6,32.2,93,74,43,30.10,30.00,7,0,9,0.00
2013-2-2,59.6,46.8,40.1,48.2,42.3,37.2,94,85,65,30.20,30.10,9,0,12,0.00
2013-2-3,60.9,48.4,39.1,47.4,42.7,36.5,94,82,58,30.14,30.03,8,1,10,0.01
2013-2-4,55.1,45.0,38.8,46.9,41.4,36.8,94,88,71,30.07,29.96,7,1,9,0.00
2013-2-5,60.9,49.0,40.1,46.3,42.5,36.5,90,79,54,30.05,29.93,12,1,15,0.01
2013-2-6,59.5,45.3,34.0,43.1,37.1,31.4,91,75,45,30.10,29.99,11,1,12,0.01
2013-2-7,55.6,46.7,37.6,45.7,38.5,30.1,93,76,40,30.05,29.88,14,2,17,0.14
2013-2-8,59.0,44.6,33.4,36.1,33.5,25.6,92,69,28,29.92,29.82,14,2,18,0.01
2013-2-9,62.3,44.0,31.6,34.1,29.7,21.4,87,61,21,29.99,29.90,13,1,14,0.00
2013-2-10,64.7,43.9,30.3,45.2,33.1,26.3,87,68,32,30.01,29.90,10,1,14,0.00
2013-2-11,68.3,48.3,34.1,38.9,33.2,26.9,84,61,23,30.12,29.98,12,1,12,0.00
2013-2-12,62.6,45.2,32.1,45.8,37.6,29.2,90,76,46,30.25,30.12,9,1,9,0.00
2013-2-13,65.2,46.7,32.9,44.3,37.8,30.3,92,73,42,30.23,30.10,11,1,12,0.01
2013-2-14,70.8,50.5,36.3,47.9,40.2,33.6,91,71,40,30.14,30.04,11,1,12,0.00
2013-2-15,72.3,52.2,35.8,45.7,40.1,33.1,90,67,35,30.16,30.09,9,0,11,0.00
2013-2-16,71.8,51.1,38.6,46.4,40.3,35.6,90,71,30,30.13,29.94,9,1,10,0.00
2013-2-17,63.4,46.6,33.8,43.2,37.0,31.2,92,72,38,29.94,29.86,10,1,11,0.00
2013-2-18,53.8,43.9,35.6,40.8,36.8,31.8,89,77,61,29.92,29.81,14,1,14,0.00
2013-2-19,49.5,42.2,33.5,41.4,34.6,27.6,92,76,45,29.85,29.63,14,2,18,0.17
2013-2-20,59.9,44.5,29.8,35.7,31.5,26.9,90,64,30,29.95,29.75,13,2,15,0.01
2013-2-21,63.4,48.7,33.7,37.3,32.6,24.9,85,58,23,30.06,29.95,14,1,15,0.00
2013-2-22,63.4,48.8,35.9,44.2,37.4,29.7,84,67,31,30.14,30.05,11,1,14,0.00
2013-2-23,59.8,49.6,39.8,41.4,32.8,24.3,88,56,27,30.16,30.06,14,2,17,0.00
2013-2-24,68.8,48.7,32.8,35.0,29.9,17.6,81,53,16,30.15,30.04,13,1,14,0.00
2013-2-25,70.1,49.0,35.0,42.7,34.9,17.7,86,63,15,30.15,30.03,10,1,16,0.00
2013-2-26,71.1,49.0,32.8,38.9,32.2,23.4,86,59,18,30.11,30.02,12,1,15,0.00
2013-2-27,69.1,50.4,34.0,43.7,35.8,27.4,85,61,27,30.25,30.10,11,1,13,0.00
2013-2-28,69.3,55.2,44.5,52.6,46.8,41.0,89,75,53,30.33,30.24,11,1,14,0.00
2013-3-1,74.2,55.6,41.5,50.8,45.4,39.1,93,72,40,30.32,30.13,9,1,12,0.00
2013-3-2,70.3,56.2,46.0,53.0,46.9,42.5,89,73,50,30.14,29.95,8,1,9,0.00
2013-3-3,64.7,52.9,46.5,49.1,46.0,43.1,88,78,53,29.98,29.91,14,2,21,0.00
2013-3-4,56.3,47.2,39.2,45.4,42.0,35.9,91,82,62,30.04,29.94,9,1,11,0.00
2013-3-5,54.5,46.4,36.6,46.1,39.8,33.7,90,78,63,29.96,29.67,19,2,23,0.11
2013-3-6,56.0,48.9,40.2,47.0,40.1,34.6,90,73,48,29.95,29.67,21,3,28,0.05
2013-3-7,56.2,46.0,36.5,40.7,36.0,31.5,90,71,41,29.89,29.76,8,0,9,0.01
2013-3-8,64.8,49.0,35.2,43.1,35.9,29.3,90,65,27,29.92,29.73,13,2,15,0.01
2013-3-9,70.8,51.8,36.6,44.4,37.9,31.4,88,63,24,30.21,29.92,14,1,16,0.00
2013-3-10,69.8,51.5,36.5,44.4,38.6,33.1,89,66,28,30.23,30.13,13,1,15,0.00
2013-3-11,72.3,52.0,36.2,47.0,40.3,33.0,90,68,30,30.16,29.99,12,1,13,0.00
2013-3-12,73.0,53.8,39.9,54.9,44.7,37.5,92,74,45,30.05,29.96,11,1,12,0.00
2013-3-13,79.8,57.0,41.5,55.7,46.5,39.1,93,71,36,30.06,29.95,10,0,10,0.01
2013-3-14,70.6,55.8,45.1,54.0,46.6,42.1,91,73,49,30.05,29.98,12,1,12,0.00
2013-3-15,74.0,55.2,42.9,53.5,45.4,39.8,89,72,37,30.02,29.92,12,1,15,0.00
2013-3-16,75.6,57.7,41.3,50.0,41.1,30.9,91,60,20,30.01,29.90,20,2,22,0.00
2013-3-17,70.3,54.9,42.5,45.3,39.8,28.2,81,59,21,30.04,29.93,11,2,15,0.00
2013-3-18,68.1,52.1,39.3,45.3,40.8,35.7,87,68,40,30.01,29.90,12,1,13,0.00
2013-3-19,61.6,51.8,44.2,47.1,42.1,37.3,88,71,46,30.02,29.94,8,0,12,0.09
2013-3-20,59.3,52.1,47.3,53.9,48.7,43.3,93,88,75,30.02,29.94,12,1,13,0.11
2013-3-21,66.9,51.9,37.6,46.4,39.4,35.2,92,65,37,30.02,29.90,12,2,14,0.01
2013-3-22,69.1,52.9,36.0,38.8,33.3,25.2,88,53,21,30.01,29.92,12,2,16,0.00
2013-3-23,68.3,51.7,36.5,43.1,35.8,28.7,84,59,25,30.03,29.93,10,1,15,0.00
2013-3-24,69.4,52.4,39.5,47.4,41.1,36.0,87,68,38,29.98,29.85,12,1,14,0.00
2013-3-25,58.0,47.8,39.1,44.8,41.4,36.4,93,79,60,29.92,29.83,13,1,17,0.00
2013-3-26,63.5,50.6,40.9,48.5,42.8,38.1,93,76,51,29.89,29.83,13,2,14,0.00
2013-3-27,62.1,52.0,43.8,52.2,46.1,40.2,89,81,61,29.90,29.83,10,1,11,0.00
2013-3-28,64.2,55.2,47.6,53.6,49.3,44.5,90,81,66,29.98,29.89,8,1,8,0.05
2013-3-29,76.8,58.1,47.9,55.9,50.0,46.3,94,77,37,29.99,29.91,12,1,16,0.01
2013-3-30,67.4,56.1,50.7,54.6,50.0,47.4,92,81,56,29.96,29.89,14,1,14,0.05
2013-3-31,62.7,55.7,51.9,54.0,52.2,49.6,93,88,64,29.96,29.89,8,1,10,0.03
2013-4-1,63.2,54.8,48.6,55.1,50.3,46.1,94,85,65,30.04,29.93,10,0,11,0.02
2013-4-2,65.8,52.2,43.9,53.9,47.3,42.0,94,84,63,30.08,29.99,12,2,14,0.01
2013-4-3,75.3,54.8,46.2,56.6,48.4,44.6,94,81,42,30.03,29.88,14,2,16,0.00
2013-4-4,57.8,53.8,49.1,55.6,51.5,46.3,94,92,87,30.01,29.87,11,1,14,0.00
2013-4-5,62.9,56.3,52.8,53.3,50.9,47.6,94,83,62,30.07,30.00,11,2,14,0.00
2013-4-6,66.8,56.5,52.3,54.3,50.5,47.6,90,81,60,30.07,30.02,14,2,16,0.01
2013-4-7,63.2,55.1,49.6,53.2,48.5,42.8,93,79,57,30.07,29.70,15,3,18,0.00
2013-4-8,69.1,55.6,46.0,44.6,35.7,29.1,83,50,25,29.95,29.70,19,5,24,0.00
2013-4-9,79.9,61.6,42.5,45.1,36.1,17.4,81,46,10,30.01,29.92,17,2,22,0.00
2013-4-10,84.9,67.0,48.9,57.8,46.7,41.3,79,52,23,30.07,29.91,15,2,17,0.00
2013-4-11,77.0,62.2,48.6,51.2,45.1,40.0,81,56,28,29.96,29.73,12,2,15,0.00
2013-4-12,72.7,56.9,44.3,51.4,44.8,40.4,87,66,37,29.81,29.71,14,1,15,0.00
2013-4-13,75.1,58.8,44.8,49.8,41.4,34.4,88,57,31,29.80,29.69,14,3,21,0.00
2013-4-14,72.0,56.7,44.3,43.8,36.7,22.0,81,50,21,29.82,29.73,24,4,26,0.00
2013-4-15,60.9,50.7,40.1,42.7,34.1,27.3,90,57,28,29.86,29.75,24,4,27,0.00
2013-4-16,70.3,54.1,36.3,37.0,30.6,17.8,82,46,15,30.07,29.86,14,2,16,0.00
2013-4-17,73.9,57.5,41.1,42.1,30.7,14.6,75,43,12,30.17,30.06,16,1,20,0.00
2013-4-18,77.4,59.7,42.5,44.7,38.7,34.2,80,51,22,30.15,30.07,11,1,15,0.00
2013-4-19,80.1,62.3,45.2,53.7,45.1,40.3,84,57,27,30.11,29.96,18,2,20,0.00
2013-4-20,79.4,62.9,47.9,48.5,43.4,36.9,80,52,24,30.00,29.87,16,2,18,0.00
2013-4-21,83.2,65.0,46.7,51.0,44.9,36.5,86,53,23,29.92,29.81,13,1,14,0.00
2013-4-22,88.8,68.1,50.7,51.4,46.6,36.7,81,51,17,29.85,29.74,13,1,16,0.00
2013-4-23,82.4,66.1,46.2,48.3,33.0,15.5,90,37,10,29.81,29.75,17,2,21,0.00
2013-4-24,60.2,51.7,46.2,48.5,44.7,42.7,90,78,60,29.85,29.73,15,2,17,0.00
2013-4-25,63.1,54.1,48.2,48.9,45.5,43.2,85,73,57,30.01,29.85,11,2,15,0.00
2013-4-26,66.8,53.5,47.7,52.0,46.7,43.7,88,79,59,30.13,30.01,13,2,17,0.00
2013-4-27,71.1,54.7,47.0,54.1,47.4,44.9,93,78,52,30.12,29.96,14,2,17,0.00
2013-4-28,83.0,63.3,43.5,54.8,48.2,40.9,92,63,32,29.96,29.76,13,1,13,0.00
2013-4-29,87.2,71.1,53.5,54.9,49.0,44.9,82,50,27,29.79,29.65,14,2,20,0.00
2013-4-30,88.8,70.9,53.8,46.3,35.8,10.4,72,35,6,29.76,29.67,13,1,16,0.00
2013-5-1,89.3,73.9,56.5,42.5,23.6,11.1,52,18,8,29.97,29.74,14,2,21,0.00
2013-5-2,90.7,68.7,47.6,43.3,36.6,22.5,73,37,11,30.04,29.96,10,1,12,0.00
2013-5-3,89.3,67.3,48.3,50.0,40.2,33.4,70,41,18,29.97,29.69,11,1,14,0.00
2013-5-4,86.3,64.2,49.6,50.8,45.9,40.9,81,56,22,29.69,29.46,13,2,16,0.00
2013-5-5,63.9,58.5,55.0,48.8,47.7,46.3,79,68,58,29.71,29.52,12,1,14,0.00
2013-5-6,69.1,59.8,52.2,50.9,49.0,47.2,84,69,48,29.87,29.71,12,1,16,0.00
2013-5-7,71.1,60.1,52.3,53.0,50.4,48.5,88,72,45,29.94,29.86,12,2,16,0.00
2013-5-8,62.1,54.1,50.1,51.3,48.6,46.3,92,82,66,30.02,29.93,15,2,15,0.00
2013-5-9,65.6,55.9,49.9,51.4,48.4,46.2,88,77,58,30.06,29.97,17,3,18,0.00
2013-5-10,71.6,57.7,50.7,55.6,49.7,47.1,88,76,55,30.07,29.98,15,2,18,0.00
2013-5-11,82.0,60.5,48.2,58.8,50.4,46.3,93,73,41,30.03,29.94,10,2,14,0.00
2013-5-12,77.0,57.5,47.0,58.5,49.5,44.5,92,77,47,30.03,29.99,13,1,17,0.00
2013-5-20,57.5,57.4,57.3,46.8,46.6,46.4,68,67,67,29.80,29.80,3,1,3,0.00
2013-5-21,73.9,61.6,49.9,45.7,40.7,33.9,83,50,26,29.88,29.79,22,6,26,0.00
2013-5-22,70.1,57.0,43.3,39.4,32.5,25.3,63,42,19,29.93,29.78,20,4,25,0.00
2013-5-23,72.3,58.7,44.6,43.4,38.8,33.9,75,50,27,29.89,29.79,13,2,16,0.00
2013-5-24,73.0,58.6,43.8,43.8,40.7,33.6,79,54,25,29.88,29.79,12,2,17,0.00
2013-5-25,71.6,58.6,44.5,47.2,43.2,39.4,84,59,34,29.92,29.83,13,2,16,0.00
2013-5-26,73.7,60.8,50.1,52.1,47.7,45.5,88,64,40,30.00,29.91,14,2,18,0.00
2013-5-27,62.9,56.2,48.9,55.3,49.8,43.9,93,80,65,30.00,29.88,12,1,15,0.21
2013-5-28,73.7,61.6,55.3,56.6,52.9,48.5,94,75,50,29.89,29.81,12,2,15,0.03
2013-5-29,77.4,64.9,55.9,54.1,49.6,39.8,80,60,27,29.85,29.76,14,3,17,0.00
2013-5-30,80.5,65.0,47.3,47.3,43.3,37.3,85,50,24,29.87,29.80,12,2,15,0.00
2013-5-31,88.0,69.5,50.8,50.4,46.2,42.7,78,47,22,29.90,29.79,14,2,15,0.00
2013-6-1,91.6,74.3,54.8,53.1,47.2,41.0,76,42,23,29.82,29.66,13,1,21,0.00
2013-6-2,81.6,68.9,55.1,52.1,47.9,44.5,75,49,32,29.67,29.53,13,2,17,0.00
2013-6-3,67.9,58.8,50.8,51.9,49.3,46.3,86,72,55,29.77,29.59,12,2,16,0.00
2013-6-4,64.3,56.9,53.3,51.5,49.5,48.5,86,77,59,29.87,29.75,13,2,15,0.00
2013-6-5,69.9,57.8,52.0,52.8,49.6,47.5,87,75,53,29.89,29.82,14,2,14,0.00
2013-6-6,74.7,57.7,50.4,54.5,49.8,47.0,90,77,48,29.85,29.74,14,2,17,0.00
2013-6-7,90.1,67.5,51.0,58.2,52.2,48.2,91,63,30,29.78,29.60,11,1,11,0.00
2013-6-8,89.0,68.1,55.9,59.4,53.3,50.8,85,62,35,29.74,29.59,15,2,16,0.00
2013-6-9,65.3,58.6,55.9,53.6,52.3,51.1,90,80,64,29.79,29.73,11,2,13,0.00
2013-6-10,61.5,58.1,55.1,55.7,52.6,50.1,92,82,70,29.85,29.68,9,1,11,0.07
2013-6-11,75.8,63.8,53.1,56.5,51.6,47.5,89,66,42,29.87,29.76,11,1,14,0.00
2013-6-12,84.7,65.7,47.3,47.9,42.4,23.9,87,49,13,29.87,29.79,17,3,20,0.00
2013-6-13,84.3,67.6,49.2,45.5,41.8,38.1,72,42,20,29.97,29.87,13,2,17,0.00
2013-6-14,85.3,67.5,52.6,48.2,44.7,31.9,78,49,15,29.89,29.70,13,2,17,0.00
2013-6-15,78.5,60.7,47.3,52.2,47.6,42.5,85,65,35,29.87,29.71,17,2,20,0.00
2013-6-16,85.1,65.9,48.2,51.8,47.1,43.4,87,56,27,29.95,29.86,15,2,19,0.00
2013-6-17,80.5,64.6,49.8,53.4,49.5,44.8,85,61,36,29.96,29.88,18,2,18,0.00
2013-6-18,73.7,62.7,50.7,50.7,46.6,39.1,88,59,30,29.90,29.82,18,3,19,0.00
2013-6-19,78.8,64.4,48.2,48.1,44.3,37.7,81,51,26,29.93,29.86,14,3,18,0.00
2013-6-20,82.8,66.7,49.6,47.5,43.8,37.1,78,48,22,29.90,29.79,13,2,19,0.00
2013-6-21,84.5,67.8,50.2,49.1,45.7,37.9,81,50,22,29.86,29.77,12,1,14,0.00
2013-6-22,87.2,71.2,53.1,51.0,46.5,40.9,74,45,22,29.81,29.70,14,2,19,0.00
2013-6-23,67.8,61.6,57.0,58.5,54.6,50.4,88,78,63,29.74,29.70,13,2,18,0.00
2013-6-24,62.7,58.8,56.3,57.3,54.7,52.1,93,86,78,29.79,29.68,8,1,9,0.11
2013-6-25,64.5,61.6,58.9,62.5,59.7,56.9,94,94,93,29.87,29.76,8,1,13,0.09
2013-6-26,79.4,67.9,60.9,63.7,60.7,57.8,95,80,52,29.94,29.85,11,1,12,0.02
2013-6-27,89.9,71.2,56.9,62.5,58.2,51.3,95,68,28,29.97,29.89,11,1,12,0.02
2013-6-28,95.6,77.8,59.3,64.9,59.1,55.6,90,57,29,29.92,29.77,14,1,15,0.00
2013-6-29,99.2,80.9,61.0,61.2,57.5,53.5,84,49,23,29.80,29.66,11,1,12,0.00
2013-6-30,91.6,74.7,59.5,58.9,55.2,51.9,77,54,30,29.72,29.63,14,1,15,0.01
2013-7-1,95.6,73.8,57.5,62.1,55.6,51.8,83,57,27,29.72,29.67,11,1,12,0.00
2013-7-2,91.2,70.8,58.9,60.7,56.2,53.6,85,62,35,29.81,29.69,12,2,15,0.00
2013-7-3,86.5,69.5,58.7,61.2,56.3,54.2,86,66,40,29.81,29.65,11,1,14,0.00
2013-7-4,97.3,78.4,63.5,61.0,53.9,40.1,75,48,17,29.70,29.54,14,2,22,0.00
2013-7-5,82.8,67.0,54.7,54.9,50.3,45.5,78,57,37,29.63,29.57,14,2,16,0.00
2013-7-6,76.7,61.9,53.5,56.4,51.6,48.5,87,70,48,29.68,29.62,13,2,15,0.00
2013-7-7,77.4,60.1,52.9,56.6,51.6,49.4,89,76,46,29.76,29.68,11,2,13,0.00
2013-7-8,79.2,61.1,52.8,57.8,51.9,49.0,90,74,46,29.87,29.76,10,2,12,0.00
2013-7-9,89.5,66.3,51.1,55.7,51.7,49.1,93,65,26,29.92,29.82,10,2,12,0.00
2013-7-10,75.3,59.2,51.0,54.6,50.3,48.2,91,75,43,29.88,29.79,15,3,16,0.00
2013-7-11,73.0,57.4,50.1,53.6,49.9,47.0,91,78,48,29.84,29.76,13,2,15,0.00
2013-7-12,75.8,59.6,52.9,55.4,50.6,48.6,88,74,48,29.84,29.75,14,2,15,0.00
2013-7-13,79.8,62.1,48.2,55.8,50.1,44.8,89,68,39,29.84,29.78,15,2,15,0.00
2013-7-14,74.7,59.5,52.0,54.9,50.7,48.7,89,75,46,29.88,29.79,14,2,16,0.00
2013-7-15,67.1,55.5,49.4,52.8,49.7,47.2,92,82,57,29.82,29.74,12,2,14,0.00
2013-7-16,66.3,58.3,53.5,55.2,51.4,49.4,88,78,64,29.91,29.76,8,1,10,0.00
2013-7-17,75.3,60.9,50.8,57.2,52.6,47.9,90,76,50,29.98,29.91,12,2,14,0.01
2013-7-18,77.7,61.8,53.5,57.3,52.7,50.4,93,75,45,29.94,29.82,14,2,17,0.00
2013-7-19,83.0,62.7,51.7,58.0,51.9,48.6,91,71,40,29.84,29.70,13,2,14,0.00
2013-7-20,83.0,62.3,50.8,58.3,51.9,48.5,93,72,41,29.73,29.62,11,2,14,0.00
2013-7-21,79.6,62.1,53.2,56.7,51.5,49.0,88,71,43,29.78,29.65,13,1,14,0.00
2013-7-22,83.8,64.9,52.9,58.4,53.6,48.8,87,69,37,29.86,29.78,12,1,13,0.00
2013-7-23,76.7,66.0,58.3,57.5,54.5,52.8,83,68,48,29.89,29.83,9,1,13,0.00
2013-7-24,81.4,64.7,54.2,56.0,53.1,51.2,92,69,40,29.88,29.79,13,2,17,0.00
2013-7-25,74.0,60.3,52.5,55.0,51.7,49.7,91,75,49,29.92,29.81,16,3,18,0.00
2013-7-26,75.1,59.1,52.2,56.5,51.8,49.8,92,79,52,29.99,29.90,12,2,15,0.00
2013-7-27,73.9,58.5,52.3,55.9,51.7,49.7,92,80,52,29.92,29.76,15,2,18,0.00
2013-7-28,72.1,57.5,51.7,55.8,51.0,49.2,92,80,54,29.78,29.70,14,2,16,0.00
2013-7-29,72.0,58.5,53.9,54.8,51.1,49.5,87,77,55,29.91,29.73,12,1,15,0.00
2013-7-30,70.9,58.1,52.5,55.7,51.4,49.4,90,79,55,29.99,29.91,15,2,15,0.00
2013-7-31,74.6,61.0,52.6,55.1,51.8,49.5,93,74,48,29.97,29.84,14,2,16,0.00
2013-8-1,77.0,62.8,47.7,52.6,49.9,44.9,91,66,39,29.92,29.82,13,2,17,0.00
2013-8-2,81.8,63.8,48.3,53.1,49.5,45.2,90,64,34,29.85,29.75,14,2,18,0.00
2013-8-3,77.4,59.7,51.7,55.6,50.9,48.0,89,75,46,29.84,29.79,15,2,16,0.00
2013-8-4,72.0,57.4,51.6,54.9,50.7,48.8,91,80,54,29.88,29.83,13,2,17,0.00
2013-8-5,71.6,57.8,51.6,55.3,50.4,48.2,90,78,54,29.90,29.82,11,2,14,0.00
2013-8-6,71.1,58.5,51.6,54.4,51.0,48.8,90,77,53,29.92,29.85,13,2,15,0.00
2013-8-7,57.0,56.9,56.9,51.8,51.7,51.6,83,83,82,29.92,29.92,2,1,6,0.00
2013-8-11,76.3,64.1,54.5,56.9,53.8,51.5,90,71,49,29.91,29.82,15,3,16,0.00
2013-8-12,79.0,61.0,52.5,56.3,52.1,50.2,93,75,42,29.88,29.82,12,2,15,0.00
2013-8-13,85.5,66.0,52.9,56.4,52.0,47.2,91,66,27,29.88,29.78,12,2,16,0.00
2013-8-14,88.0,67.5,50.5,58.0,52.1,46.5,88,63,27,29.86,29.75,14,1,16,0.00
2013-8-15,85.7,69.0,55.3,64.7,58.3,52.1,92,71,42,29.83,29.79,12,2,16,0.00
2013-8-16,85.7,67.7,57.0,62.2,57.1,54.1,93,72,41,29.86,29.81,17,2,17,0.00
2013-8-17,85.3,68.7,54.4,58.1,54.6,51.2,90,65,36,29.86,29.71,12,1,15,0.00
2013-8-18,90.5,72.3,55.9,61.1,55.6,52.1,88,60,32,29.77,29.65,12,1,14,0.00
2013-8-19,84.9,69.8,58.3,60.2,55.6,49.8,89,63,32,29.78,29.68,12,2,14,0.00
2013-8-20,80.7,64.1,58.3,59.6,56.5,54.6,91,78,45,29.79,29.71,14,2,14,0.00
2013-8-21,75.3,62.2,55.1,56.7,53.5,50.4,87,75,48,29.84,29.76,14,2,14,0.00
2013-8-22,72.3,60.9,55.3,55.3,52.8,51.0,90,76,53,29.87,29.78,12,2,15,0.00
2013-8-23,76.3,63.5,56.2,56.4,53.5,51.5,86,72,49,29.81,29.67,12,2,16,0.00
2013-8-24,79.0,63.8,51.4,56.9,53.5,48.3,93,71,44,29.77,29.70,14,2,18,0.00
2013-8-25,77.2,66.2,58.7,61.0,57.7,54.4,88,75,56,29.83,29.76,14,2,14,0.00
2013-8-26,80.3,66.4,58.4,58.7,55.3,52.1,92,70,39,29.90,29.77,13,2,14,0.01
2013-8-27,84.5,66.5,51.4,58.9,53.1,47.9,89,66,34,29.79,29.70,15,2,16,0.00
2013-8-28,80.7,65.8,55.1,62.3,57.7,53.1,94,77,51,29.82,29.73,14,2,15,0.00
2013-8-29,82.6,67.9,60.2,62.6,59.5,57.5,93,77,49,29.94,29.82,11,2,15,0.01
2013-8-30,90.5,71.3,56.6,60.6,57.0,52.9,92,65,29,29.91,29.79,13,1,15,0.00
2013-8-31,82.2,65.3,54.7,57.5,54.5,50.7,87,71,41,29.85,29.77,14,2,18,0.00
2013-9-1,79.4,65.3,55.4,59.3,55.4,52.2,90,72,44,29.83,29.76,12,2,16,0.00
2013-9-2,80.7,68.2,57.6,61.6,58.4,54.4,90,73,49,29.83,29.77,15,2,16,0.00
2013-9-3,81.8,66.4,52.9,57.5,53.6,48.1,91,67,34,29.87,29.79,11,1,15,0.00
2013-9-4,82.8,66.9,52.3,56.7,54.1,49.4,90,67,37,29.91,29.80,10,1,13,0.00
2013-9-5,84.9,68.9,53.1,55.1,51.7,47.4,88,58,28,29.88,29.81,10,1,13,0.00
2013-9-6,93.2,72.0,53.8,54.5,48.9,44.4,81,49,20,29.87,29.73,9,1,12,0.00
2013-9-7,95.9,73.0,53.3,51.8,48.0,40.5,79,47,16,29.76,29.69,13,1,14,0.00
2013-9-8,88.2,67.5,53.2,55.7,51.8,47.3,94,63,25,29.76,29.65,9,1,12,0.00
2013-9-9,92.1,66.1,51.9,54.9,52.0,48.2,90,65,27,29.70,29.59,11,2,16,0.00
2013-9-10,73.2,62.4,56.6,59.4,56.6,53.7,91,82,60,29.79,29.62,12,2,15,0.00
2013-9-11,69.6,64.0,61.5,59.0,57.6,56.4,90,80,66,29.89,29.79,8,1,10,0.00
2013-9-12,77.9,64.6,58.0,61.2,57.1,54.5,89,78,54,29.87,29.76,12,2,14,0.00
2013-9-13,78.3,62.7,54.8,58.0,54.2,52.1,93,76,45,29.79,29.62,19,2,19,0.00
2013-9-14,77.0,61.7,54.4,56.8,53.6,50.6,92,77,50,29.70,29.60,15,2,17,0.00
2013-9-15,79.2,63.3,52.8,57.4,54.1,49.6,92,75,45,29.74,29.65,12,1,15,0.00
2013-9-16,84.0,65.3,52.6,57.8,53.7,50.0,93,70,35,29.78,29.64,11,1,16,0.00
2013-9-17,79.6,65.5,50.5,52.8,49.7,45.4,90,61,33,29.77,29.68,17,3,21,0.00
2013-9-18,84.0,67.2,51.9,48.9,46.3,41.4,81,51,24,29.79,29.69,11,1,14,0.00
2013-9-19,88.2,65.2,47.9,50.3,45.6,36.3,83,55,18,29.74,29.64,12,1,14,0.00
2013-9-20,76.3,60.9,46.4,61.3,52.3,41.9,86,75,49,29.73,29.65,16,2,19,0.01
2013-9-21,70.1,61.9,53.2,60.2,55.3,49.8,94,81,52,29.78,29.67,13,2,20,0.15
2013-9-22,75.8,61.3,47.9,53.0,50.0,45.5,92,70,36,29.89,29.78,13,1,14,0.02
2013-9-23,83.0,65.6,51.4,58.5,53.5,47.7,88,68,36,29.91,29.80,11,1,13,0.03
2013-9-24,78.5,64.1,52.9,54.4,49.8,44.0,90,64,31,29.86,29.76,16,3,20,0.00
2013-9-25,72.7,60.4,47.7,47.5,42.9,36.1,89,56,28,29.82,29.70,18,3,20,0.00
2013-9-26,77.2,60.3,45.2,44.8,39.4,32.3,80,51,21,29.89,29.74,15,1,15,0.00
2013-9-27,80.3,61.7,44.2,43.7,38.9,31.1,82,50,17,29.98,29.89,10,1,14,0.00
2013-9-28,81.8,61.6,46.4,54.5,43.8,35.1,84,58,21,29.97,29.89,12,1,14,0.00
2013-9-29,70.6,61.7,53.8,61.5,56.5,50.1,92,83,68,29.98,29.93,11,2,14,0.00
2013-9-30,72.7,63.5,55.1,62.4,58.5,46.3,94,84,66,29.94,29.86,10,2,12,0.02
2013-10-1,78.8,61.1,45.5,50.1,45.9,42.3,91,62,28,29.90,29.79,8,1,10,0.00
2013-10-2,78.6,61.7,48.9,47.3,43.4,35.1,86,56,22,29.91,29.81,14,2,21,0.00
2013-10-3,75.8,61.8,42.8,40.4,32.1,20.3,81,41,13,29.98,29.85,18,3,26,0.00
2013-10-4,83.0,69.9,57.6,34.1,26.3,19.2,40,21,11,29.97,29.89,17,2,22,0.00
2013-10-5,85.7,64.2,45.2,37.8,33.1,26.6,68,36,13,30.07,29.97,10,1,12,0.00
2013-10-6,85.9,62.1,42.1,39.4,35.1,27.9,76,42,14,30.01,29.89,5,0,7,0.00
2013-10-7,83.8,61.4,43.6,46.5,38.2,24.2,76,48,12,29.89,29.74,9,1,10,0.00
2013-10-8,78.1,59.2,44.2,46.7,41.5,37.6,81,55,24,29.79,29.60,10,1,12,0.00
2013-10-9,73.9,59.2,44.8,44.1,40.8,34.3,82,54,26,29.65,29.50,10,1,14,0.00
2013-10-10,72.8,56.4,46.1,49.1,43.4,38.6,88,64,33,29.89,29.64,10,1,12,0.00
2013-10-11,67.9,51.8,44.5,47.9,45.2,41.9,94,80,46,29.99,29.87,9,1,12,0.00
2013-10-12,69.8,53.9,40.2,49.0,43.2,37.6,93,70,42,29.90,29.76,12,1,14,0.00
2013-10-13,75.8,57.1,42.6,46.1,41.2,34.9,90,60,24,29.95,29.81,9,1,13,0.00
2013-10-14,81.1,58.0,40.6,43.5,38.3,34.3,87,54,19,30.00,29.88,9,1,10,0.00
2013-10-15,85.5,59.3,40.2,41.3,35.4,28.7,83,48,13,29.93,29.83,7,0,13,0.00
2013-10-16,84.0,59.2,40.6,37.3,34.3,28.9,77,45,14,29.98,29.88,7,0,11,0.00
2013-10-17,84.0,59.0,40.8,41.5,35.7,30.5,79,48,16,29.97,29.84,9,0,12,0.00
2013-10-18,79.4,56.6,40.3,44.2,39.5,35.2,83,58,25,29.93,29.87,10,1,10,0.00
2013-10-19,86.3,58.4,39.5,44.7,40.6,35.5,89,59,17,29.96,29.87,8,0,10,0.00
2013-10-20,78.6,54.7,39.9,46.0,42.7,36.6,92,69,27,29.91,29.79,10,1,12,0.00
2013-10-21,73.9,54.3,45.1,49.6,46.1,43.2,94,77,41,29.90,29.79,7,0,8,0.00
2013-10-22,78.5,54.3,43.8,50.6,46.1,42.2,94,77,37,29.92,29.81,8,1,10,0.00
2013-10-23,74.2,52.3,43.8,50.4,45.8,42.2,94,81,36,29.87,29.78,10,1,12,0.00
2013-10-24,66.3,51.6,45.5,48.4,45.9,42.2,93,82,51,29.99,29.85,7,1,10,0.00
2013-10-25,71.8,52.6,40.8,49.1,44.2,38.4,94,76,43,30.06,29.97,7,0,10,0.01
2013-10-26,82.0,56.1,40.5,47.9,42.6,37.5,91,66,25,30.03,29.90,7,0,11,0.00
2013-10-27,62.9,50.7,43.8,48.6,44.8,40.6,94,81,55,29.92,29.52,14,1,16,0.00
2013-10-28,66.0,51.4,39.3,44.8,41.0,36.3,90,70,37,29.70,29.55,10,1,14,0.00
2013-10-29,65.5,51.5,41.8,46.4,42.9,38.8,90,74,47,29.94,29.70,9,1,11,0.00
2013-10-30,67.9,50.8,38.6,46.0,40.7,35.9,92,71,41,30.04,29.94,11,1,11,0.01
2013-10-31,44.2,42.3,40.2,37.8,37.1,36.1,86,82,77,30.02,30.01,2,0,4,0.00
2013-11-27,66.6,62.8,60.2,43.9,43.1,42.3,53,49,43,29.78,29.75,3,0,5,0.00
2013-11-29,61.5,59.3,57.8,43.3,42.4,41.7,56,54,50,30.06,30.04,4,1,5,0.00